OSNSAT

Last updated on Jan. 12, 2018, 12:15 a.m. UTC

1 41939U 98067KZ  18011.28402027  .11925055  12489-4  54124-3 0  9997
2 41939  51.6147  38.9582 0001091 231.1728 128.9202 16.43639489 55773

Satellite is not in orbit.